Tekamah, NE

1:16 AM CDT on September 27, 2016 (GMT -0500)
Tekamah

Weather History for KTQE - January, 2014

Change the Weather History Date:

Thursday, January 23, 2014

  Actual Average Record
Temperature  
Mean Temperature 5 °F -  
Max Temperature 17 °F 35 °F 59 °F (2004)
Min Temperature -7 °F 14 °F -17 °F (1963)
Degree Days  
Heating Degree Days 60    
Moisture  
Dew Point -11 °F    
Average Humidity 53    
Maximum Humidity 72    
Minimum Humidity 31    
Precipitation  
Precipitation 0.00 in - - ()
Sea Level Pressure  
Sea Level Pressure 30.76 in    
Wind  
Wind Speed 11 mph (NW)    
Max Wind Speed 16 mph    
Max Gust Speed -    
Visibility 10 miles    
Events      
Averages and records for this station are not official NWS values.
T = Trace of Precipitation, MM = Missing Value Source: NWS Daily Summary

Daily Weather History Graph

Daily Weather History Graph

Search for Another Location

Airport or City:

Trip Planner

Search our weather history database for the weather conditions in past years. The results will help you decide how hot, cold, wet, or windy it might be!

Date:

Astronomy

Jan. 23, 2014 Rise Set
Actual Time 7:44 AM CST 5:28 PM CST
Civil Twilight 7:14 AM CST 5:58 PM CST
Nautical Twilight 6:40 AM CST 6:32 PM CST
Astronomical Twilight 6:07 AM CST 7:05 PM CST
Moon 12:07 AM CST (1/23) 11:13 AM CST (1/23)
Length of Visible Light 10h 44m
Length of Day
9h 44m
Waning Gibbous, 55% of the Moon is Illuminated
Jan 23
Waning Gibbous
Jan 23
Last Quarter
Jan 30
New
Feb 6
First Quarter
Feb 14
Full

Hourly Weather History & Observations

Time (CST) Temp. Windchill Dew Point Humidity Pressure Visibility Wind Dir Wind Speed Gust Speed Precip Events Conditions
12:54 AM -2.0 °F -19.6 °F -13.0 °F 60% 30.70 in 10.0 mi NNW 11.5 mph - N/A   Clear
1:54 AM -2.9 °F -19.8 °F -13.0 °F 62% 30.72 in 10.0 mi NNW 10.4 mph - N/A   Clear
2:54 AM -4.0 °F -21.2 °F -13.0 °F 65% 30.74 in 10.0 mi NNW 10.4 mph - N/A   Clear
3:54 AM -5.1 °F -22.5 °F -14.1 °F 65% 30.76 in 10.0 mi NW 10.4 mph - N/A   Clear
4:54 AM -5.1 °F -21.5 °F -14.1 °F 65% 30.79 in 10.0 mi NNW 9.2 mph - N/A   Clear
5:54 AM -5.1 °F -24.3 °F -13.0 °F 69% 30.82 in 10.0 mi NNW 12.7 mph - N/A   Clear
6:54 AM -6.0 °F -23.6 °F -14.1 °F 68% 30.85 in 10.0 mi NW 10.4 mph - N/A   Clear
7:54 AM -7.1 °F -25.0 °F -14.1 °F 72% 30.87 in 10.0 mi NW 10.4 mph - N/A   Clear
8:54 AM -2.0 °F -20.5 °F -11.0 °F 66% 30.89 in 10.0 mi NNW 12.7 mph - N/A   Clear
9:54 AM 1.0 °F -18.7 °F -9.9 °F 60% 30.90 in 10.0 mi NNW 16.1 mph - N/A   Clear
10:54 AM 5.0 °F -13.0 °F -9.0 °F 52% 30.91 in 10.0 mi NNW 15.0 mph - N/A   Clear
11:54 AM 8.1 °F -9.0 °F -8.0 °F 48% 30.88 in 10.0 mi NW 15.0 mph - N/A   Clear
12:54 PM 10.9 °F -5.4 °F -7.1 °F 44% 30.85 in 10.0 mi NW 15.0 mph - N/A   Clear
1:54 PM 15.1 °F 1.1 °F -7.1 °F 37% 30.82 in 10.0 mi WNW 12.7 mph - N/A   Clear
2:54 PM 16.0 °F 2.9 °F -8.0 °F 34% 30.79 in 10.0 mi NW 11.5 mph - N/A   Clear
3:54 PM 17.1 °F 6.6 °F -9.0 °F 31% 30.78 in 10.0 mi WNW 8.1 mph - N/A   Clear
4:54 PM 16.0 °F 6.3 °F -9.0 °F 32% 30.76 in 10.0 mi WSW 6.9 mph - N/A   Clear
7:54 PM -2.0 °F -16.6 °F -16.1 °F 51% 30.69 in 10.0 mi South 8.1 mph - N/A   Clear
8:54 PM -0.0 °F -16.3 °F -14.1 °F 52% 30.64 in 10.0 mi SSE 10.4 mph - N/A   Clear
9:54 PM 1.9 °F -12.9 °F -11.9 °F 52% 30.58 in 10.0 mi South 9.2 mph - N/A   Clear
10:54 PM 9.0 °F -5.9 °F -9.0 °F 44% 30.51 in 10.0 mi South 11.5 mph - N/A   Clear
11:54 PM 10.9 °F -5.9 °F -9.0 °F 40% 30.47 in 10.0 mi SSW 16.1 mph - N/A   Clear